Location: Appeville
(49.3218°N, 1.3427°W)
Time: 07:38:27
(UTC+00:00)

USA 234 - Pass Details

Date: 08 December 2019
Orbit: 1099 x 1108 km, 123.0° (Epoch: 16 January)

Event Time Altitude Azimuth Distance (km) Brightness Sun altitude
Rises 06:10:02 0° 62° (ENE) 3,922 6.9 -15.0°
Reaches altitude 10° 06:12:33 10° 58° (ENE) 2,964 6.1 -14.6°
Maximum altitude 06:18:54 55° 343° (NNW) 1,309 3.5 -13.6°
Enters shadow 06:24:21 14° 271° (W) 2,644 4.7 -12.8°
